Regional Weather Roundup
Issued by NWS

Home | Current Version | Previous Version | Graphics & Text | Print | Product List | Glossary On
Versions: 1 2 3 4 5 6 7 8 9 10 11 12 13 14 15 16 17 18 19 20 21 22 23 24 25 26 27 28 29 30 31 32 33 34 35 36 37 38 39 40 41 42 43 44 45 46 47 48 49 50
000
ASUS43 KFSD 012010
RWRSD

WEATHER ROUNDUP FOR SOUTH DAKOTA
NATIONAL WEATHER SERVICE SIOUX FALLS SD
300 PM CDT SAT AUG 01 2015

NOTE: "FAIR" INDICATES FEW OR NO CLOUDS BELOW 12,000 FEET WITH NO
SIGNIFICANT WEATHER AND/OR OBSTRUCTIONS TO VISIBILITY.


SDZ001>005-009-010-012>017-012100-
NORTHWEST AND NORTH CENTRAL SOUTH DAKOTA

CITY           SKY/WX    TMP DP  RH WIND       PRES   REMARKS
BUFFALO          N/A     95  34  11 W17G24    29.89F
FAITH            N/A     96  30   9 NW18G31   29.91F
MOBRIDGE       SUNNY     95  54  25 NW14      29.80F
$$

SDZ012>016-024>037-041>051-057-063-072>074-012100-
SOUTHWEST AND SOUTH CENTRAL SOUTH DAKOTA

CITY           SKY/WX    TMP DP  RH WIND       PRES   REMARKS
RAPID CTY ARPT SUNNY     90  57  32 VRB3      29.99F
PIERRE         SUNNY     92  61  35 SW24G38   29.86F
CUSTER         MOSUNNY   79  53  40 SE10      30.16F
ELLSWORTH AFB  SUNNY     92  41  16 VRB1      29.98F
PHILIP         SUNNY     87  64  46 S24       29.94F
PINE RIDGE     SUNNY     84  62  47 SE13G30   30.03F
WINNER         FAIR      88  58  36 SW18G29   29.92F
$$

SDZ004>011-016>023-039-040-012100-
NORTHEAST SOUTH DAKOTA

CITY           SKY/WX    TMP DP  RH WIND       PRES   REMARKS
ABERDEEN       SUNNY     89  68  49 SW16      29.81F
WATERTOWN      MOSUNNY   86  64  47 S17G25    29.88F
BROOKINGS      MOSUNNY   82  63  51 SW9       29.95F
SISSETON         N/A     83  68  60 S13G21    29.81F
$$

SDZ017-020-022-023-036>040-048>070-012100-
SOUTHEAST SOUTH DAKOTA

CITY           SKY/WX    TMP DP  RH WIND       PRES   REMARKS
SIOUX FALLS    PTSUNNY   82  63  52 SW9G22    29.94S
HURON          SUNNY     86  59  39 SW21      29.86F
CHAMBERLAIN    SUNNY     86  62  44 SW15G21   29.90F
MITCHELL       SUNNY     87  59  38 SW12G26   29.89F
YANKTON        CLOUDY    81  59  47 SW10      29.93F
$$

ABBREVIATIONS USED IN REMARKS
   TC - TEMPERATURE IN CELSIUS
  WCI - WIND CHILL INDEX
   HX - HEAT INDEX
  VSB - VISIBILITY




USA.gov is the U.S. government's official web portal to all federal, state and local government web resources and services.